loading
DOY 173 | 2024-06-21T03:34:05Z

THOR ABLESTAR DEB, 648

Orbit data source: Space-Track

THOR ABLESTAR DEB, 648 is space debris in LEO originally from a launch on Thu, 29 Jun 1961 UTC launched from the Air Force Eastern Test Range (AFETR). Debris objects in space refer to the collection of defunct objects orbiting the Earth. Examples of debris include non-operational satellites, rocket bodies, and fragments generated from explosions, collisions, or faulty payload assembly.

Loading next visibility...
Loading greatness...
THOR ABLESTAR DEB details
NORAD ID648
COSPAR ID
1961-015GZ
Orbit
LEO
Last TLE update1 day ago
Origin
Flag of USUSAF SSD (US)
ManufacturerUnknown
BusUnknown
MotorUnknown
MassWet unknown, Dry mass unknown
Launch date (UTC)
1961-06-29 (63 years ago)
Launch vehicleUnknown
Launch site
Air Force Eastern Test Range (AFETR)
Object type
Payload
Rocket body
Debris
Radar Cross SectionSmall (<0.1 m²)
Predictive object data (real-time)
Latitude-48.08658°
Longitude85.00865°
Altitude1,045.094 km
Speed7.336 km/s
Apparent Right ascension23h 25m 28s
Apparent Declination-54° 37' 14"
Sunlit
Object is in full shadow
Predictive observer data (real-time)
Local Sidereal Time14:32:56
Azimuth131.311° SE
Elevation-55.77°
Doppler factor1
Orbital elements
Apogee1,192.401 km
Perigee887.722 km
Semi-major axis7,418.198 km
Eccentricity0.0205359
Inclination65.8765°
RAAN338.1647°
Arg. of periapsis220.4177°
True anomaly288.71844°
Mean anomaly290.9361°
Mean motion3.397 °/min
BSTAR0.00090615
Period105.98 mins
Definitive object data (Epoch: 2024-06-19T20:47:02.008Z)
Latitude27.9754°
Longitude-75.8473°
Altitude992.361 km
Speed7.384 km/s
True Right ascension09h 37m 54s
True Declination27° 50' 16"
Sunlit
Object was in daylight at TLE epoch
TLE from 1 day ago
0 THOR ABLESTAR DEB
1 00648U 61015GZ  24171.86599547  .00000680  00000-0  90615-3 0  9997
2 00648  65.8765 338.1647 0205359 220.4177 290.9361 13.58393005100138
Epoch: 2024-06-19T20:47Z
No data available

THOR ABLESTAR DEB Visibility forecast

Observer location: 39.9160978°, -105.1181434, 0m alt.

THOR ABLESTAR DEB is not visible in the next 10 days
Span
Click to sort rows by Start time (UTC) header in descending order
Start Az.
Max El. time (UTC)
Max El. Az.
Max El.
End time (UTC)
End Az.